Flag for Hungary Weather past 2 weeks in Szeged, Hungary

Now
64 °F

Light rain. Overcast.


Feels Like: 64 °F
Forecast: 50 / 82 °F
Wind: 3 mph from Northwest

Location: Szeged

Current Time: Jul 31, 2015 at 1:55:05 PM

Latest Report: Jul 31, 2015 at 1:00 PM


Visibility: 7 mi

Pressure: 30.00 "Hg

Humidity: 90%

Dew point: 60 °F

Location of SzegedLocation

Historic Weather in Szeged — Graph

°F

Szeged temperature yesterday

Maximum temperature yesterday: 76 °F (at 3:00 PM)
Minimum temperature yesterday: 61 °F (at 10:00 PM)
Average temperature yesterday: 67 °F

Past Weeks' High & Low Weather Summary

 TemperatureHumidityPressure
High97 °F (Jul 23, 2:00 PM)97% (Jul 27, 10:00 PM)30.12 "Hg (Jul 27, 10:00 PM)
Low54 °F (Jul 27, 4:00 AM)25% (Jul 23, 5:00 PM)29.67 "Hg (Jul 25, 7:00 PM)
Average76 °F62%29.89 "Hg
* Reported Jul 16 12:00 Noon — Jul 31 12:00 Noon, Szeged, Weather by CustomWeather, © 2015

Note: Actual official high and low records may vary slightly from our data, if they occured in-between our weather recording intervals... More about our weather records

Advertising

Szeged weather history for previous 24 hours

 ConditionsComfort  
Time TempWeatherWind HumidityBarometerVisibility
12:00 PM
Fri, Jul 31
64 °FLight rain. Overcast.5 mph79%30.01 "Hg5 mi
11:00 AM66 °FLight rain. Overcast.5 mph71%30.00 "Hg12 mi
10:00 AM66 °FOvercast.2 mph71%29.98 "Hg22 mi
9:00 AM66 °FOvercast.3 mph68%29.96 "Hg25 mi
8:00 AM64 °FPartly sunny.5 mph72%29.94 "Hg25 mi
7:00 AM62 °FOvercast.2 mph77%29.95 "Hg25 mi
6:00 AM62 °FOvercast.1 mph80%29.95 "Hg25 mi
5:00 AM62 °FOvercast.3 mph81%29.95 "Hg16 mi
4:00 AM61 °FOvercast.1 mph89%29.95 "Hg16 mi
3:00 AM61 °FOvercast.1 mph88%29.95 "Hg16 mi
2:00 AM61 °FOvercast.2 mph89%29.95 "Hg16 mi
1:00 AM61 °FOvercast.1 mph89%29.96 "Hg16 mi
12:00 AM63 °FOvercast.2 mph81%29.96 "Hg19 mi
11:00 PM
Thu, Jul 30
61 °FPassing clouds.3 mph84%29.96 "Hg19 mi
10:00 PM61 °FPassing clouds.3 mph85%29.95 "Hg19 mi
9:00 PM64 °FPassing clouds.3 mph73%29.94 "Hg28 mi
8:00 PM67 °FOvercast.5 mph62%29.93 "Hg28 mi
7:00 PM68 °FOvercast.6 mph54%29.93 "Hg31 mi
6:00 PM69 °FPartly sunny.6 mph63%29.92 "Hg31 mi
5:00 PM72 °FPartly sunny.5 mph58%29.93 "Hg31 mi
4:00 PM73 °FScattered clouds.6 mph59%29.92 "Hg22 mi
3:00 PM76 °FScattered clouds.6 mph54%29.92 "Hg22 mi
2:00 PM75 °FScattered clouds.7 mph57%29.91 "Hg22 mi
1:00 PM73 °FScattered clouds.6 mph69%29.92 "Hg19 mi
Weather by CustomWeather, © 2015

See weather overviewHow to use our weather pages